Location: Lake Crest
(37.6062°N, 88.9176°W)
Time: 19:39:07
(UTC+00:00)

Cosmos 2369 Rocket - Pass Details

Date: 15 December 2019
Orbit: 828 x 853 km, 71.0° (Epoch: 25 January)

Event Time Altitude Azimuth Distance (km) Brightness Sun altitude
Rises 00:49:55 0° 336° (NNW) 3,393 5.5 -25.3°
Reaches altitude 10° 00:52:21 10° 336° (NNW) 2,459 4.8 -25.8°
Maximum altitude 00:58:00 81° 250° (WSW) 857 2.2 -26.9°
Enters shadow 01:01:19 26° 165° (SSE) 1,605 3.5 -27.5°
